Hourly Data Report for September 23, 2017

All times are specified in Local Standard Time (LST). Add 1 hour to adjust for Daylight Saving Time where and when it is observed.

OTTAWA INTL A
ONTARIO

45°19'00.000" N
75°40'00.000" W
114.90 m
6106001
71628
YOW

Download Data

Hourly Data (September 2017)
Hourly Data Report for September 23, 2017
Temp Definition
°C
Dew Point Temp Definition
°C
Rel Hum Definition
%
Wind Dir Definition
10's deg

Wind Spd Definition
km/h
Visibility Definition
km
Stn Press Definition
kPa
Hmdx Definition


Wind Chill Definition


Weather Definition


TIME
00:00 Legend Double Dagger 17.2 13.6 79 20 4 24.1 100.46     LegendNANA
01:00 Legend Double Dagger 16.7 13.2 80 19 8 24.1 100.39     Clear
02:00 Legend Double Dagger 16.2 12.9 81 21 5 24.1 100.40     LegendNANA
03:00 Legend Double Dagger 16.3 12.7 79 21 6 24.1 100.39     LegendNANA
04:00 Legend Double Dagger 15.5 12.5 82 36 1 24.1 100.38     Clear
05:00 Legend Double Dagger 15.6 12.2 80 25 3 24.1 100.43     LegendNANA
06:00 Legend Double Dagger 15.5 12.8 84 19 9 24.1 100.46     LegendNANA
07:00 Legend Double Dagger 16.4 13.7 84 20 11 24.1 100.45     Mostly Cloudy
08:00 Legend Double Dagger 19.6 15.2 75 22 12 24.1 100.47     LegendNANA
09:00 Legend Double Dagger 23.1 16.1 65 27 11 24.1 100.48 28   LegendNANA
10:00 Legend Double Dagger 25.2 17.0 60 26 7 24.1 100.45 30   Mainly Clear
11:00 Legend Double Dagger 27.4 18.6 58 28 11 24.1 100.46 34   LegendNANA
12:00 Legend Double Dagger 28.2 18.7 56 28 18 24.1 100.46 35   LegendNANA
13:00 Legend Double Dagger 28.9 18.2 52 27 16 24.1 100.43 35   Mostly Cloudy
14:00 Legend Double Dagger 28.8 19.1 55 26 16 24.1 100.39 36   LegendNANA
15:00 Legend Double Dagger 28.6 18.3 53 28 15 24.1 100.35 35   LegendNANA
16:00 Legend Double Dagger 28.4 18.6 55 31 14 24.1 100.31 35   Mainly Clear
17:00 Legend Double Dagger 27.7 19.2 59 27 8 24.1 100.30 35   LegendNANA
18:00 Legend Double Dagger 25.5 18.8 66 28 7 24.1 100.31 32   LegendNANA
19:00 Legend Double Dagger 24.6 18.7 69 23 4 24.1 100.32 31   Clear
20:00 Legend Double Dagger 21.2 17.8 81 22 6 24.1 100.35 27   LegendNANA
21:00 Legend Double Dagger 21.9 18.7 82 19 10 24.1 100.39 28   LegendNANA
22:00 Legend Double Dagger 20.8 18.5 87 19 10 24.1 100.41 27   Clear
23:00 Legend Double Dagger 20.4 18.5 88 19 9 24.1 100.40 27   LegendNANA

Notes on Data Quality.

Legend

  • E = Estimated
  • M = Missing
  • NA = Not Available
  • ‡ = Partner data that is not subject to review by the National Climate Archives
Date modified: